This demonstration page uses our WeatherBlox Daily Observations layout. Learn more.

Left ArrowRight Arrow

53.62937, 11.41316

Hourly Observations for August 15, 2022

Temp ( °F °C ) Dew Point ( °F °C ) Humidity (%) Winds ( mph kmh ) Pressure ( in mb ) Visibility ( mi km ) Precip ( " mm )
12:20 am 00:20 Clear 64 18 55 13 73 73 E 5 7 29.76 1008 6 10 0.00 0.00
12:50 am 00:50 Clear 64 18 57 14 77 77 E 2 4 29.73 1007 6 10 0.00 0.00
1:20 am 01:20 Clear 63 17 57 14 82 82 ENE 2 4 29.73 1007 6 10 0.00 0.00
1:50 am 01:50 Clear 61 16 57 14 88 88 NE 2 4 29.73 1007 6 10 0.00 0.00
2:20 am 02:20 Clear 61 16 59 15 94 94 Calm 29.70 1006 6 10 0.00 0.00
2:50 am 02:50 Clear 61 16 59 15 94 94 ENE 2 4 29.70 1006 6 10 0.00 0.00
3:20 am 03:20 Clear 59 15 55 13 88 88 ENE 2 4 29.70 1006 6 10 0.00 0.00
3:50 am 03:50 Clear 61 16 57 14 88 88 ENE 2 4 29.70 1006 6 10 0.00 0.00
4:20 am 04:20 Clear 61 16 59 15 94 94 E 2 4 29.70 1006 6 10 0.00 0.00
4:50 am 04:50 Clear 59 15 59 15 100 100 ENE 1 2 29.68 1005 6 10 0.00 0.00
5:20 am 05:20 Mostly Clear 59 15 57 14 94 94 E 2 4 29.70 1006 6 10 0.00 0.00
5:50 am 05:50 Clear 59 15 59 15 100 100 VRB 1 2 29.68 1005 1 1 0.00 0.00
6:20 am 06:20 Mostly Sunny 59 15 57 14 94 94 Calm 29.68 1005 6 10 0.00 0.00
6:50 am 06:50 Sunny with Patchy Fog 61 16 59 15 94 94 ENE 2 4 29.68 1005 6 10 0.00 0.00
7:20 am 07:20 Mostly Sunny 63 17 63 17 100 100 E 5 7 29.67 1005 6 10 0.00 0.00
7:50 am 07:50 Mostly Sunny 64 18 63 17 94 94 E 6 9 29.67 1005 6 10 0.00 0.00
8:20 am 08:20 Mostly Sunny 68 20 63 17 83 83 E 3 6 29.67 1005 6 10 0.00 0.00
8:50 am 08:50 Mostly Sunny 70 21 63 17 78 78 E 3 6 29.67 1005 6 10 0.00 0.00
9:20 am 09:20 Mostly Sunny 72 22 64 18 78 78 VRB 2 4 29.67 1005 6 10 0.00 0.00
9:50 am 09:50 Mostly Sunny 75 24 64 18 69 69 E 5 7 29.67 1005 6 10 0.00 0.00
10:20 am 10:20 Mostly Sunny 79 26 64 18 61 61 ESE 5 7 29.67 1005 6 10 0.00 0.00
10:50 am 10:50 Mostly Sunny 81 27 64 18 58 58 E 5 7 29.64 1004 6 10 0.00 0.00
11:20 am 11:20 Mostly Sunny 81 27 63 17 54 54 SE 6 9 29.64 1004 6 10 0.00 0.00
11:50 am 11:50 Mostly Sunny 82 28 63 17 51 51 SE 7 11 29.64 1004 6 10 0.00 0.00
12:20 pm 12:20 Mostly Sunny 84 29 63 17 48 48 SE 5 7 29.64 1004 6 10 0.00 0.00
12:50 pm 12:50 Mostly Sunny 84 29 63 17 48 48 ESE 7 11 29.64 1004 6 10 0.00 0.00
1:20 pm 13:20 Mostly Sunny 86 30 63 17 46 46 SE 8 13 29.64 1004 6 10 0.00 0.00
1:50 pm 13:50 Mostly Sunny 86 30 61 16 43 43 E 9 15 29.61 1003 6 10 0.00 0.00
2:20 pm 14:20 Mostly Sunny 86 30 61 16 43 43 E 7 11 29.61 1003 6 10 0.00 0.00
2:50 pm 14:50 Partly Cloudy with Thunderstorms 79 26 68 20 70 70 NNE 10 17 29.61 1003 6 10 0.00 0.00
3:20 pm 15:20 Partly Cloudy with Thunderstorms 75 24 68 20 78 78 NNW 8 13 29.61 1003 6 10 0.00 0.00
3:50 pm 15:50 Partly Cloudy with Thunderstorms 72 22 64 18 78 78 WNW 12 19 29.61 1003 6 10 0.00 0.00
4:20 pm 16:20 Partly Cloudy with Thunderstorms 73 23 68 20 83 83 NNE 13 20 29.61 1003 6 10 0.00 0.00
4:50 pm 16:50 Partly Cloudy with Showers Nearby 75 24 66 19 74 74 NE 6 9 29.61 1003 6 10 0.00 0.00
5:20 pm 17:20 Mostly Sunny 75 24 68 20 78 78 NE 8 13 29.61 1003 6 10 0.00 0.00
5:50 pm 17:50 Mostly Sunny 75 24 70 21 83 83 NE 6 9 29.61 1003 6 10 0.00 0.00
6:20 pm 18:20 Mostly Sunny 77 25 70 21 79 79 NE 5 7 29.61 1003 6 10 0.00 0.00
6:50 pm 18:50 Mostly Sunny 77 25 68 20 74 74 NE 6 9 29.61 1003 6 10 0.00 0.00
7:20 pm 19:20 Mostly Sunny 77 25 70 21 79 79 NNE 3 6 29.61 1003 6 10 0.00 0.00
7:50 pm 19:50 Mostly Sunny 75 24 70 21 83 83 WNW 3 6 29.61 1003 6 10 0.00 0.00
8:20 pm 20:20 Mostly Sunny 73 23 68 20 83 83 VRB 2 4 29.61 1003 6 10 0.00 0.00
8:50 pm 20:50 Mostly Clear 73 23 68 20 83 83 VRB 2 4 29.64 1004 6 10 0.00 0.00
9:20 pm 21:20 Partly Cloudy 73 23 64 18 73 73 SSW 3 6 29.64 1004 6 10 0.00 0.00
9:50 pm 21:50 Mostly Clear 73 23 63 17 69 69 S 5 7 29.64 1004 6 10 0.00 0.00
10:20 pm 22:20 Partly Cloudy 72 22 63 17 73 73 S 3 6 29.64 1004 6 10 0.00 0.00
10:50 pm 22:50 Mostly Cloudy 70 21 64 18 83 83 SSE 5 7 29.64 1004 6 10 0.00 0.00
11:20 pm 23:20 Mostly Cloudy 68 20 64 18 88 88 S 3 6 29.64 1004 6 10 0.00 0.00
11:50 pm 23:50 Mostly Cloudy 68 20 64 18 88 88 VRB 1 2 29.67 1005 6 10 0.00 0.00

Powered by AerisWeather